Location: Maccacari
(45.1333°N, 11.1333°E)
Time: 02:26:01
(UTC+00:00)

Altair - Pass Details

Date: 26 January 2021
Orbit: 1501 x 1682 km, 47.2° (Epoch: 01 March)

Event Time Altitude Azimuth Distance (km) Brightness Sun altitude
Rises 08:19:38 0° 286° (WNW) 4,928 9.6 13.2°
Reaches altitude 10° 08:22:47 10° 287° (WNW) 3,946 9.2 13.6°
Maximum altitude 08:33:01 87° 200° (SSW) 1,685 8.1 14.9°
Drops below altitude 10° 08:43:06 10° 113° (ESE) 3,892 11.0 16.1°
Sets 08:46:11 0° 113° (ESE) 4,859 11.3 16.4°
